Humidity-temperature Sensor

Selected Measurement Type: Relative Humidity

 
Relative Humidity [%]     6 entries per hour
Showing data from 8/17/2020 (00:00:00 Z) to 8/14/2020 (00:01:00 Z)
Previous Next [ Day | 3-Days | 7-Days ]
First Last
Prev [ Day | 3-Days | 7-Days ] Next
First Last

Start Time:     :
End Time:     :     
Time (in GMT) :00 :50 :40 :30 :20 :10
Previous Next [ Day | 3-Days | 7-Days ]
First Last
Prev [ Day | 3-Days | 7-Days ] Next
First Last


123 => good data
MM => data is determined as missing
-- => data not received/configured
Back to Top Back to Top
8/17/2020 00:00 to 23:10 76.72 77.45 76.51 74.91 75.70 75.03
8/16/2020 23:00 to 22:10 75.55 74.68 74.66 72.42 73.33 73.45
8/16/2020 22:00 to 21:10 74.62 74.87 74.08 73.27 73.79 73.00
8/16/2020 21:00 to 20:10 74.10 75.45 74.00 74.27 74.20 75.60
8/16/2020 20:00 to 19:10 75.62 74.29 73.70 72.85 73.81 73.68
8/16/2020 19:00 to 18:10 71.65 71.65 73.06 74.06 74.37 75.91
8/16/2020 18:00 to 17:10 74.08 74.51 73.52 73.60 76.80 78.05
8/16/2020 17:00 to 16:10 75.72 74.18 73.54 73.12 72.91 72.56
8/16/2020 16:00 to 15:10 72.87 72.08 70.38 71.27 69.61 68.63
8/16/2020 15:00 to 14:10 68.26 70.61 70.77 71.50 71.79 72.81
8/16/2020 14:00 to 13:10 74.64 76.61 77.38 78.38 78.38 79.38
8/16/2020 13:00 to 12:10 78.61 75.30 75.24 74.43 74.02 74.10
8/16/2020 12:00 to 11:10 74.74 73.87 74.27 73.62 72.37 72.67
8/16/2020 11:00 to 10:10 71.88 74.95 74.72 73.41 74.12 75.51
8/16/2020 10:00 to 9:10 77.80 77.76 77.22 77.05 76.90 74.24
8/16/2020 09:00 to 8:10 73.89 74.20 73.81 74.16 73.58 75.99
8/16/2020 08:00 to 7:10 75.91 74.85 75.93 75.74 76.68 75.87
8/16/2020 07:00 to 6:10 74.81 73.52 75.10 77.47 76.78 77.49
8/16/2020 06:00 to 5:10 76.24 76.84 77.18 77.90 77.61 77.59
8/16/2020 05:00 to 4:10 75.99 77.30 76.24 76.68 76.57 76.22
8/16/2020 04:00 to 3:10 76.39 75.87 75.91 78.48 78.92 77.78
8/16/2020 03:00 to 2:10 78.13 77.32 76.99 77.49 76.12 76.70
8/16/2020 02:00 to 1:10 76.68 76.82 76.99 76.43 76.12 74.66
8/16/2020 01:00 to 0:10 73.18 74.58 74.99 75.53 75.97 76.36
8/16/2020 00:00 to 23:10 -- -- -- -- -- --
8/15/2020 23:00 to 22:10 75.85 75.53 76.49 76.28 75.22 75.14
8/15/2020 22:00 to 21:10 75.14 75.20 75.12 74.79 76.59 75.91
8/15/2020 21:00 to 20:10 76.45 75.80 76.70 76.82 75.14 74.60
8/15/2020 20:00 to 19:10 75.22 76.05 76.76 77.05 75.18 75.87
8/15/2020 19:00 to 18:10 76.80 77.11 77.09 76.95 76.03 74.70
8/15/2020 18:00 to 17:10 74.49 74.89 75.10 74.29 74.12 72.87
8/15/2020 17:00 to 16:10 73.14 74.27 75.78 75.64 74.64 74.35
8/15/2020 16:00 to 15:10 73.21 72.91 70.94 72.50 73.73 72.60
8/15/2020 15:00 to 14:10 72.35 74.37 75.24 76.80 77.65 73.64
8/15/2020 14:00 to 13:10 74.06 73.81 74.04 72.58 72.98 72.19
8/15/2020 13:00 to 12:10 74.35 75.95 76.09 75.95 76.99 77.96
8/15/2020 12:00 to 11:10 78.38 77.32 76.05 75.68 76.22 77.11
8/15/2020 11:00 to 10:10 77.09 76.66 76.43 76.72 76.82 76.86
8/15/2020 10:00 to 9:10 77.18 76.74 75.95 76.63 77.84 76.59
8/15/2020 09:00 to 8:10 76.80 74.70 74.89 75.64 75.68 74.79
8/15/2020 08:00 to 7:10 74.87 75.14 75.03 75.28 75.51 74.68
8/15/2020 07:00 to 6:10 74.43 74.00 72.98 73.87 75.41 74.87
8/15/2020 06:00 to 5:10 74.27 74.97 74.14 73.97 73.60 74.56
8/15/2020 05:00 to 4:10 74.41 74.81 75.12 74.83 75.93 76.12
8/15/2020 04:00 to 3:10 75.55 76.36 76.51 76.82 75.62 75.64
8/15/2020 03:00 to 2:10 75.76 75.87 76.03 76.55 76.82 75.41
8/15/2020 02:00 to 1:10 75.87 75.99 75.80 76.24 75.51 75.70
8/15/2020 01:00 to 0:10 75.30 76.22 75.24 75.41 76.36 73.70
8/15/2020 00:00 to 23:10 73.18 73.37 74.91 74.99 74.79 75.45
8/14/2020 23:00 to 22:10 75.68 75.93 75.22 74.64 74.04 74.24
8/14/2020 22:00 to 21:10 73.50 74.39 74.47 74.08 75.26 75.60
8/14/2020 21:00 to 20:10 75.70 75.01 73.41 72.42 71.00 70.73
8/14/2020 20:00 to 19:10 70.88 70.61 72.42 71.77 72.56 72.60
8/14/2020 19:00 to 18:10 71.92 71.50 70.88 70.00 69.80 70.42
8/14/2020 18:00 to 17:10 69.01 70.48 76.26 80.17 80.69 80.81
8/14/2020 17:00 to 16:10 81.27 79.63 78.82 78.71 78.90 77.76
8/14/2020 16:00 to 15:10 77.94 77.18 76.49 76.99 77.92 78.28
8/14/2020 15:00 to 14:10 79.19 76.74 75.35 76.61 77.47 77.03
8/14/2020 14:00 to 13:10 77.01 76.59 76.70 77.63 76.22 76.39
8/14/2020 13:00 to 12:10 75.45 75.22 75.14 74.76 75.10 74.18
8/14/2020 12:00 to 11:10 74.02 73.29 73.60 73.00 73.31 73.52
8/14/2020 11:00 to 10:10 73.41 73.79 72.75 73.41 74.02 73.06
8/14/2020 10:00 to 9:10 74.08 74.35 74.04 74.79 73.91 74.66
8/14/2020 09:00 to 8:10 74.10 74.35 74.49 75.60 75.43 73.89
8/14/2020 08:00 to 7:10 72.52 74.16 73.81 73.62 74.41 74.83
8/14/2020 07:00 to 6:10 74.66 74.14 74.56 73.77 74.31 74.02
8/14/2020 06:00 to 5:10 74.85 74.81 75.08 75.51 75.33 74.33
8/14/2020 05:00 to 4:10 73.62 73.54 74.20 74.70 75.33 74.60
8/14/2020 04:00 to 3:10 74.58 75.10 75.14 75.85 75.18 75.39
8/14/2020 03:00 to 2:10 76.18 75.20 73.81 73.91 76.07 76.61
8/14/2020 02:00 to 1:10 76.68 75.57 76.07 75.80 75.62 74.16
8/14/2020 01:00 to 0:10 73.60 73.56 74.02 74.47 75.60 75.53